[[{"header":{"parameterUnit":"m.s-1","parameterCategory":1,"la1":30.2991,"la2":30.254,"lo1":-89.0895,"lo2":-89.0444,"dy":0.0017,"dx":0.0017,"nx":28,"ny":28,"refTime":"2025-11-05T03:00:00:Z","depth":0,"parameterNumber":2,"parameterNumberName":"U-component_of_WINDS"},"data":[0,0,0,0,0,0,0,0,0,0,0,0,0,0,0,0,0,0,0,0,0,0,0,0,0,0,0,0,0,0,0,0,0,0,0,0,0,0,0,0,0,0,0,0,0,0,0,0,0,0,0,0,0,0,0,0,0,0,0.3457,0.3457,0,0.3472,0.3472,0.3473,0.3534,0.3536,0.3537,0.3538,0.355,0.3549,0.3548,0,0,0,0,0,0,0,0,0,0,0,0,0,0.3476,0.3475,0.3457,0.3457,0.3457,0.3472,0.3472,0.3473,0.3534,0.3536,0.3537,0.3539,0.355,0.3549,0.3548,0,0,0,0,0,0,0,0,0,0,0,0,0,0.3477,0.3475,0.3457,0.349,0.3493,0.3472,0.3472,0.3473,0.3534,0.3536,0.3538,0.354,0.3551,0.3549,0.3548,0.3495,0,0,0.3543,0.3542,0,0,0,0,0,0,0,0,0.3477,0.3476,0.3485,0.3487,0.3491,0.3504,0.3483,0.348,0.3533,0.3518,0.3538,0.3541,0.3532,0.3533,0.3531,0.3496,0.3496,0.3543,0.3542,0.3541,0.3541,0,0,0,0,0,0,0,0.3477,0.3476,0.3463,0.3485,0.3488,0.3502,0.3505,0.3483,0.3513,0.3519,0.3524,0.3525,0.3535,0.3532,0.3531,0.3496,0.3543,0.3541,0.354,0.354,0.3417,0.3415,0,0,0,0,0,0,0.3472,0.3475,0.3462,0.3463,0.3489,0.35,0.3503,0.3497,0.3513,0.3518,0.3523,0.3528,0.3534,0.3533,0.3532,0.347,0.3541,0.354,0.3539,0.3419,0.3416,0.3414,0,0,0,0,0,0,0.3473,0.3471,0.3462,0.3471,0.3471,0.3498,0.3491,0.3496,0.3494,0.3516,0.3521,0.3515,0.3535,0.3534,0.3504,0.3471,0.3539,0.3538,0.3422,0.3418,0.3415,0.3347,0,0,0,0,0,0,0.3473,0.347,0.3452,0.347,0.347,0.3434,0.3489,0.3495,0.3492,0.3498,0.351,0.3514,0.3537,0.3506,0.3502,0.347,0.3536,0.3425,0.342,0.3416,0.3352,0.3341,0.3332,0,0,0,0,0,0.3473,0.3432,0.3451,0.3449,0.3448,0.3433,0.3432,0.346,0.3489,0.347,0.3484,0.3514,0.3476,0.3502,0.3499,0.3466,0.3427,0.3422,0.3416,0.3356,0.3343,0.3332,0,0,0,0,0,0,0.3408,0.3435,0.3456,0.3419,0.3423,0.3443,0.342,0.3446,0.3441,0.3447,0.348,0.3483,0.3447,0.3454,0.3482,0.3415,0.3456,0.345,0.3412,0.3399,0.339,0.3388,0.3535,0,0,0,0,0,0.339,0.3377,0.34,0.3365,0.3366,0.3392,0.3387,0.3408,0.3413,0.3415,0.3427,0.3429,0.3418,0.3409,0.34,0.3353,0.3356,0.3329,0.3319,0.3311,0.3305,0.3278,0.3266,0.3396,0.3396,0.3397,0,0,0.3351,0.3364,0.3353,0.3352,0.3358,0.3342,0.3393,0.3375,0.3363,0.3412,0.3383,0.3392,0.3397,0.3358,0.3341,0.3362,0.3269,0.3304,0.3297,0.3296,0.3272,0.3259,0.3248,0.3393,0.3393,0.3394,0,0,0.3272,0.3281,0.3252,0.3257,0.3265,0.3283,0.3276,0.3292,0.3299,0.3272,0.3308,0.3293,0.3273,0.3275,0.3272,0.3193,0.3219,0.3189,0.3136,0.311,0.31,0.3091,0.3061,0.3049,0.3183,0.3183,0.3182,0,0.3222,0.3201,0.3234,0.3213,0.321,0.3255,0.3224,0.3227,0.3231,0.3227,0.3252,0.3226,0.3233,0.3194,0.3174,0.3172,0.3163,0.3187,0.3099,0.3091,0.3083,0.3054,0.3042,0.3179,0.3179,0.3179,0.318,0,0.3139,0.3123,0.3099,0.3103,0.3098,0.3072,0.3099,0.3089,0.3111,0.3125,0.3095,0.3105,0.3097,0.309,0.311,0.3052,0.3065,0.3094,0.3136,0.3066,0.3039,0.3028,0.3173,0.3174,0.3176,0.3177,0,0,0.3018,0.3041,0.3031,0.3032,0.3045,0.3032,0.3008,0.3002,0.2992,0.2993,0.2972,0.2953,0.298,0.2977,0.2998,0.2976,0.2909,0.3007,0.3007,0.2987,0.2843,0.282,0.2807,0.2927,0.2926,0.2924,0.2842,0,0.2942,0.2903,0.2931,0.2886,0.2871,0.2913,0.2891,0.2895,0.2907,0.2895,0.2909,0.2894,0.2931,0.293,0.2909,0.2921,0.288,0.2928,0.2906,0.2904,0.2902,0.2794,0.277,0.2693,0.2832,0.2831,0.2829,0,0.2847,0.2845,0.2799,0.2813,0.2807,0.2788,0.2783,0.2772,0.2776,0.2787,0.2784,0.281,0.2785,0.2827,0.2791,0.2823,0.2815,0.282,0.2817,0.2815,0.2862,0.2787,0.2669,0.2656,0.2814,0.2815,0.2816,0,0.2762,0.2747,0.2717,0.2718,0.2734,0.2718,0.2724,0.2731,0.2725,0.2721,0.2717,0.2709,0.2704,0.2697,0.2719,0.2748,0.2679,0.2724,0.2685,0.2684,0.2668,0.2668,0.2545,0.2665,0.2666,0.2666,0.2666,0,0.2672,0.2642,0.2679,0.266,0.2627,0.2659,0.2624,0.2634,0.2639,0.2622,0.2658,0.264,0.2672,0.2656,0.2674,0.264,0.2638,0.2644,0.2649,0.264,0.2639,0.2634,0.2639,0.2663,0.2663,0.2664,0.2665,0,0.2571,0.2595,0.2565,0.2582,0.2586,0.256,0.2575,0.2557,0.2572,0.2549,0.2545,0.2568,0.2552,0.2574,0.256,0.2571,0.2525,0.2538,0.2523,0.2527,0.2486,0.2488,0.2354,0.2337,0.247,0.2469,0.2468,0,0.2511,0.2489,0.2504,0.2496,0.25,0.2486,0.248,0.251,0.2502,0.2505,0.2486,0.2473,0.2464,0.2436,0.245,0.2439,0.2451,0.2405,0.245,0.2441,0.2448,0.2448,0.2445,0.2395,0.2393,0.2392,0.2391,0,0.2402,0.2415,0.2407,0.2401,0.2393,0.239,0.239,0.238,0.2412,0.24,0.2385,0.2378,0.2364,0.235,0.2342,0.2346,0.2372,0.2377,0.2367,0.2357,0.2348,0.235,0.2496,0.238,0.2381,0.2382,0.2382,0.2383,0.2319,0.23,0.2308,0.2296,0.2299,0.2298,0.2282,0.2295,0.2283,0.2275,0.2293,0.2272,0.2275,0.2268,0.2268,0.2251,0.2271,0.2257,0.2253,0.2249,0.2242,0.2353,0.225,0.2251,0.2251,0.2251,0.2251,0,0.221,0.2217,0.2206,0.2205,0.2195,0.2223,0.2223,0.2213,0.2195,0.2196,0.2187,0.2168,0.2154,0.2167,0.2155,0.2139,0.215,0.2134,0.2135,0.2135,0.2226,0.2235,0.2125,0.2125,0.2125,0.2125,0.2125,0.2125,0.2152,0.2122,0.2136,0.2106,0.2113,0.2095,0.2092,0.209,0.2091,0.2069,0.2058,0.2067,0.2072,0.2061,0.2048,0.2052,0.2045,0.2024,0.2032,0.2116,0.2129,0.214,0.2149,0.2023,0.2023,0.1942,0.1941,0.1941]},{"header":{"parameterUnit":"m.s-1","parameterCategory":1,"la1":30.2991,"la2":30.254,"lo1":-89.0895,"lo2":-89.0444,"dy":0.0017,"dx":0.0017,"nx":28,"ny":28,"refTime":"2025-11-05T03:00:00:Z","depth":0,"parameterNumber":3,"parameterNumberName":"V-component_of_WINDS"},"data":[0,0,0,0,0,0,0,0,0,0,0,0,0,0,0,0,0,0,0,0,0,0,0,0,0,0,0,0,0,0,0,0,0,0,0,0,0,0,0,0,0,0,0,0,0,0,0,0,0,0,0,0,0,0,0,0,0,0,0.3929,0.3929,0,0.3917,0.3917,0.3917,0.3923,0.3923,0.3923,0.3924,0.3911,0.391,0.3909,0,0,0,0,0,0,0,0,0,0,0,0,0,0.3956,0.3955,0.3929,0.3929,0.3929,0.3917,0.3917,0.3917,0.3923,0.3923,0.3923,0.3924,0.3911,0.391,0.3909,0,0,0,0,0,0,0,0,0,0,0,0,0,0.3944,0.3955,0.3929,0.393,0.393,0.3917,0.3917,0.3917,0.3923,0.3923,0.3924,0.3924,0.3911,0.391,0.3909,0.3894,0,0,0.3906,0.3906,0,0,0,0,0,0,0,0,0.3945,0.3943,0.393,0.393,0.393,0.3922,0.3922,0.3909,0.3922,0.3925,0.3924,0.3924,0.3914,0.3913,0.3909,0.3893,0.3893,0.3906,0.3906,0.3905,0.3905,0,0,0,0,0,0,0,0.3946,0.3944,0.3924,0.393,0.393,0.3931,0.393,0.3919,0.3917,0.3925,0.3926,0.3924,0.3914,0.391,0.3909,0.3893,0.3906,0.3905,0.3905,0.3904,0.3864,0.3863,0,0,0,0,0,0,0.3946,0.3944,0.3925,0.3924,0.3939,0.393,0.3929,0.3924,0.3917,0.3917,0.3924,0.3925,0.3912,0.391,0.3909,0.3891,0.3905,0.3904,0.3904,0.3864,0.3864,0.3863,0,0,0,0,0,0,0.3947,0.3945,0.3925,0.3934,0.3932,0.3929,0.3924,0.3924,0.392,0.3916,0.3916,0.3921,0.3912,0.391,0.3898,0.389,0.3904,0.3903,0.3865,0.3864,0.3863,0.3855,0,0,0,0,0,0,0.3948,0.3945,0.3939,0.3934,0.3931,0.3914,0.3923,0.3923,0.3918,0.3919,0.3913,0.3913,0.3912,0.3899,0.3897,0.3889,0.3902,0.3865,0.3864,0.3864,0.3856,0.3854,0.3852,0,0,0,0,0,0.3949,0.3937,0.3939,0.3936,0.3924,0.3914,0.3912,0.3913,0.3918,0.3912,0.391,0.3913,0.3892,0.3898,0.3895,0.3887,0.3866,0.3865,0.3864,0.3856,0.3854,0.3852,0,0,0,0,0,0,0.3941,0.3936,0.3938,0.3924,0.392,0.3915,0.3908,0.391,0.3903,0.3904,0.3905,0.3903,0.389,0.3888,0.3895,0.3873,0.388,0.3878,0.3875,0.3873,0.3871,0.3872,0.3901,0,0,0,0,0,0.3937,0.393,0.3926,0.3914,0.3912,0.391,0.3906,0.3906,0.3901,0.3899,0.3896,0.389,0.3883,0.3877,0.387,0.3855,0.3854,0.3848,0.3847,0.3845,0.3844,0.3836,0.3834,0.3859,0.3859,0.3859,0,0,0.393,0.3927,0.3922,0.3912,0.3909,0.3901,0.3908,0.3899,0.3893,0.3897,0.3886,0.3883,0.3877,0.3864,0.3858,0.3861,0.3837,0.3844,0.3843,0.3842,0.3835,0.3832,0.383,0.3859,0.3859,0.3859,0,0,0.3913,0.391,0.39,0.3896,0.3891,0.389,0.3887,0.3882,0.3881,0.3869,0.3873,0.3865,0.3852,0.3848,0.3844,0.3826,0.3828,0.3823,0.3814,0.3806,0.3804,0.3803,0.3797,0.3794,0.3822,0.3822,0.3822,0,0.3905,0.3894,0.3894,0.3885,0.3881,0.3885,0.3875,0.3871,0.3863,0.386,0.3864,0.3848,0.3844,0.383,0.3825,0.3822,0.3819,0.3824,0.3805,0.3803,0.3801,0.3795,0.3793,0.3821,0.3821,0.3821,0.3821,0,0.3884,0.3876,0.3868,0.3861,0.3856,0.3846,0.3846,0.3841,0.3842,0.384,0.3829,0.3824,0.3816,0.3813,0.3814,0.3799,0.3801,0.3805,0.3812,0.3798,0.3793,0.3791,0.382,0.382,0.3821,0.3821,0,0,0.3861,0.3855,0.3853,0.385,0.3844,0.3838,0.3828,0.3821,0.3816,0.3811,0.3803,0.3792,0.3795,0.3791,0.3791,0.3785,0.3771,0.3789,0.3789,0.3786,0.3755,0.3752,0.375,0.3773,0.3772,0.3772,0.3755,0,0.3844,0.3829,0.3829,0.3814,0.3807,0.381,0.3802,0.3798,0.3796,0.379,0.3788,0.378,0.3785,0.3783,0.3776,0.3774,0.3765,0.3775,0.3766,0.3765,0.3767,0.3747,0.3744,0.3728,0.3753,0.3753,0.3753,0,0.3822,0.3817,0.3801,0.3797,0.3794,0.3787,0.378,0.3774,0.3769,0.3768,0.3764,0.3765,0.3756,0.3763,0.375,0.3757,0.3753,0.3751,0.3751,0.375,0.3758,0.3746,0.3723,0.3721,0.3749,0.3749,0.375,0,0.3808,0.3797,0.3786,0.3783,0.3778,0.3773,0.377,0.3766,0.3762,0.3756,0.3753,0.3746,0.3742,0.3737,0.3736,0.3741,0.3723,0.373,0.3722,0.3722,0.3718,0.3719,0.3695,0.3715,0.3715,0.3716,0.3716,0,0.3789,0.378,0.3779,0.3773,0.3762,0.3763,0.3752,0.375,0.3747,0.374,0.3742,0.3736,0.3735,0.3729,0.3728,0.3718,0.3716,0.3715,0.3715,0.3715,0.3715,0.3712,0.3713,0.3715,0.3715,0.3715,0.3715,0,0.3771,0.3771,0.376,0.3756,0.3755,0.3747,0.3744,0.3737,0.3736,0.3727,0.3725,0.3724,0.3716,0.3715,0.3706,0.3705,0.3693,0.3694,0.3694,0.3695,0.3687,0.3688,0.3661,0.3658,0.368,0.368,0.368,0,0.3759,0.3752,0.3748,0.3744,0.3741,0.3734,0.373,0.373,0.3726,0.372,0.3714,0.3707,0.3701,0.3688,0.3686,0.3679,0.368,0.3671,0.3679,0.3679,0.368,0.3681,0.368,0.367,0.3669,0.3669,0.3669,0,0.3738,0.3739,0.3732,0.3726,0.3721,0.3716,0.3712,0.3708,0.3708,0.3703,0.3695,0.369,0.3681,0.3674,0.3667,0.3664,0.3667,0.3667,0.3664,0.3664,0.3665,0.3665,0.3691,0.3667,0.3667,0.3668,0.3668,0.3668,0.3723,0.3717,0.3713,0.3706,0.3703,0.3699,0.3693,0.3691,0.3685,0.3678,0.3679,0.367,0.3666,0.3657,0.3654,0.3647,0.365,0.3647,0.3646,0.3645,0.3645,0.3666,0.3646,0.3646,0.3646,0.3646,0.3646,0,0.3703,0.37,0.3694,0.3688,0.3683,0.3686,0.3681,0.3676,0.3669,0.3665,0.3659,0.365,0.3643,0.364,0.3633,0.3629,0.363,0.3627,0.3627,0.3627,0.3642,0.3645,0.3626,0.3626,0.3626,0.3626,0.3626,0.3626,0.3691,0.3681,0.3681,0.3669,0.3667,0.3659,0.3656,0.3652,0.3649,0.3639,0.3634,0.3632,0.3629,0.3622,0.3615,0.3615,0.3612,0.3609,0.3609,0.3623,0.3625,0.3627,0.363,0.3608,0.3608,0.3594,0.3594,0.3594]}]]